Terminal Aerodrome Forecast
Issued by NWS Twin Cities, MN

Home | Current Version | Previous Version | Text Only | Print | Product List | Glossary On
Versions: 1 2 3 4 5 6 7 8 9 10 11 12 13 14 15 16 17 18 19 20
000
FTUS43 KMPX 010902 AAA
TAFEAU
TAF AMD
KEAU 010902Z 0109/0206 05012G19KT 3SM -SN OVC020
      TEMPO 0109/0113 1 1/2SM -SN OVC020
     FM011500 05011KT P6SM BKN020 OVC080
     FM011900 01013KT P6SM SCT020=

USA.gov is the U.S. government's official web portal to all federal, state and local government web resources and services.